Location: El Frío
(10.0713°N, 67.9111°W)
Time: 18:06:04
(UTC+00:00)

Cosmos 2333 Rocket - Pass Details

Date: 11 December 2025
Orbit: 838 x 865 km, 70.8° (Epoch: 20 January)

Event Time Altitude Azimuth Distance (km) Brightness Sun altitude
Rises 23:45:18 0° 209° (SSW) 3,398 6.1 -22.2°
Reaches altitude 10° 23:47:50 10° 215° (SW) 2,467 5.4 -22.8°
Maximum altitude 23:53:13 45° 287° (WNW) 1,148 3.2 -24.1°
Enters shadow 23:57:30 16° 354° (N) 2,083 4.1 -25.0°
